IW3HBX-13 Weather Reports


Display with metric or nautical units.
time (UTC)temp
F
wind
direction
speed
MPH
gust
MPH
rain 1hr
in
rain 24hr
in
rain mn
in
humidity
%
barometer
mb
20260505004207 59 68 2.0 3.0 0.00 0.00 0.00 85 1015.5
20260505003610 59 68 2.0 3.0 0.00 0.00 0.00 84 1015.6
20260505002408 59 68 2.0 3.0 0.00 0.00 0.00 84 1015.5
20260505001808 59 58 2.0 2.0 0.00 0.00 0.00 84 1015.6
20260505001209 59 54 3.0 4.0 0.00 0.00 0.00 84 1015.6
20260505000607 59 69 3.0 4.0 0.00 0.00 0.00 83 1015.7
20260504235410 60 65 3.0 5.0 0.00 0.00 0.00 82 1015.8
20260504235235 60 68 3.0 4.0 0.00 0.00 0.00 81 1015.8
20260504234855 60 72 3.0 4.0 0.00 0.00 0.00 81 1015.8
20260504234807 60 72 3.0 4.0 0.00 0.00 0.00 81 1015.8
20260504234209 60 68 3.0 4.0 0.00 0.00 0.00 81 1015.8
20260504233607 60 79 3.0 4.0 0.00 0.00 0.00 80 1015.9
20260504233007 60 73 3.0 4.0 0.00 0.00 0.00 79 1016.0
20260504232453 61 70 3.0 5.0 0.00 0.00 0.00 76 1016.1
20260504232409 60 67 3.0 4.0 0.00 0.00 0.00 78 1016.0
20260504231810 61 70 3.0 5.0 0.00 0.00 0.00 76 1016.1
20260504231207 61 74 3.0 5.0 0.00 0.00 0.00 76 1016.2
20260504230609 61 63 2.0 4.0 0.00 0.00 0.00 75 1016.3
20260504225407 61 67 4.0 5.0 0.00 0.00 0.00 75 1016.4
20260504224807 61 68 4.0 5.0 0.00 0.00 0.00 74 1016.5
20260504224210 62 70 4.0 5.0 0.00 0.00 0.00 75 1016.5
20260504223608 62 65 3.0 4.0 0.00 0.00 0.00 75 1016.5
20260504223010 62 70 3.0 5.0 0.00 0.00 0.00 75 1016.5
20260504222410 62 67 3.0 5.0 0.00 0.00 0.00 74 1016.6
20260504221808 62 60 3.0 5.0 0.00 0.00 0.00 74 1016.6
20260504221208 62 64 3.0 5.0 0.00 0.00 0.00 73 1016.5
20260504220607 62 63 4.0 5.0 0.00 0.00 0.00 72 1016.6
20260504215407 62 62 3.0 5.0 0.00 0.00 0.00 71 1016.7
20260504214808 62 65 3.0 4.0 0.00 0.00 0.00 70 1016.7
20260504214207 62 62 3.0 5.0 0.00 0.00 0.00 70 1016.6
20260504213610 62 60 3.0 4.0 0.00 0.00 0.00 69 1016.6
20260504213007 62 57 1.0 2.0 0.00 0.00 0.00 69 1016.7
20260504212410 63 57 1.0 2.0 0.00 0.00 0.00 69 1016.6
20260504211807 63 66 2.0 3.0 0.00 0.00 0.00 68 1016.6
20260504211210 63 71 2.0 4.0 0.00 0.00 0.00 68 1016.7
20260504210608 63 59 3.0 5.0 0.00 0.00 0.00 68 1016.6
20260504205407 63 53 1.0 2.0 0.00 0.00 0.00 68 1016.6
20260504204807 63 306 1.0 3.0 0.00 0.00 0.00 68 1016.6
20260504204207 64 66 1.0 2.0 0.00 0.00 0.00 66 1016.6
20260504203607 64 108 0.0 0.0 0.00 0.00 0.00 65 1016.6
20260504203009 64 108 0.0 0.0 0.00 0.00 0.00 65 1016.4
20260504202407 65 108 1.0 2.0 0.00 0.00 0.00 64 1016.4
20260504201807 65 108 2.0 2.0 0.00 0.00 0.00 63 1016.3
20260504201207 65 108 2.0 2.0 0.00 0.00 0.00 63 1016.3
20260504200610 65 108 2.0 2.0 0.00 0.00 0.00 62 1016.3
20260504195409 65 108 2.0 2.0 0.00 0.00 0.00 61 1016.4
20260504194809 66 108 1.0 2.0 0.00 0.00 0.00 61 1016.4
20260504194207 66 108 0.0 0.0 0.00 0.00 0.00 61 1016.3
20260504193608 65 108 0.0 0.0 0.00 0.00 0.00 61 1016.3
20260504193007 65 108 0.0 0.0 0.00 0.00 0.00 61 1016.2
20260504192409 66 108 0.0 2.0 0.00 0.00 0.00 62 1016.2
20260504191810 66 108 1.0 2.0 0.00 0.00 0.00 62 1016.2
20260504191208 66 103 1.0 2.0 0.00 0.00 0.00 62 1016.1
20260504190607 66 102 1.0 2.0 0.00 0.00 0.00 64 1016.1
20260504185410 67 90 1.0 2.0 0.00 0.00 0.00 64 1015.9
20260504184807 67 97 1.0 2.0 0.00 0.00 0.00 65 1015.8
20260504184207 67 111 2.0 2.0 0.00 0.00 0.00 67 1015.9
20260504183607 67 91 1.0 2.0 0.00 0.00 0.00 68 1015.8
20260504183010 67 61 2.0 3.0 0.00 0.00 0.00 68 1015.8
20260504182408 67 70 2.0 2.0 0.00 0.00 0.00 67 1015.8
20260504181807 68 145 1.0 2.0 0.00 0.00 0.00 66 1015.8
20260504181207 68 147 1.0 2.0 0.00 0.00 0.00 66 1015.8
20260504180610 68 138 2.0 3.0 0.00 0.00 0.00 65 1015.7
20260504175408 69 134 2.0 3.0 0.00 0.00 0.00 64 1015.5
20260504174807 69 97 1.0 2.0 0.00 0.00 0.00 63 1015.5
20260504174207 70 87 2.0 3.0 0.00 0.00 0.00 61 1015.6
20260504173607 70 110 2.0 2.0 0.00 0.00 0.00 60 1015.5
20260504173007 70 81 2.0 3.0 0.00 0.00 0.00 59 1015.6
20260504172409 70 88 2.0 3.0 0.00 0.00 0.00 59 1015.6
20260504171807 70 85 3.0 4.0 0.00 0.00 0.00 59 1015.6
20260504171207 71 119 3.0 4.0 0.00 0.00 0.00 58 1015.6
20260504170608 71 128 2.0 3.0 0.00 0.00 0.00 56 1015.7
20260504150607 76 111 3.0 5.0 0.00 0.00 0.00 55 1015.8
20260504141207 76 96 2.0 2.0 0.00 0.00 0.00 49 1016.1
20260504140608 76 84 2.0 5.0 0.00 0.00 0.00 50 1016.1
20260504130610 78 59 1.0 2.0 0.00 0.00 0.00 47 1016.5
20260504110610 75 24 2.0 6.0 0.00 0.00 0.00 51 1017.4
20260504100607 72 69 3.0 4.0 0.00 0.00 0.00 51 1017.9
20260504081808 69 55 4.0 6.0 0.00 0.00 0.00 57 1018.3
20260504081207 69 64 3.0 6.0 0.00 0.00 0.00 57 1018.2
20260504080608 68 65 3.0 5.0 0.00 0.00 0.00 57 1018.3
20260504050607 59 63 1.0 2.0 0.00 0.00 0.00 67 1017.5
20260504045407 58 303 1.0 2.0 0.00 0.00 0.00 69 1017.5
20260504044809 59 322 2.0 2.0 0.00 0.00 0.00 68 1017.4
20260504044207 59 72 1.0 3.0 0.00 0.00 0.00 68 1017.3
20260504043607 58 71 1.0 2.0 0.00 0.00 0.00 69 1017.3
20260504043007 58 71 1.0 2.0 0.00 0.00 0.00 69 1017.2
20260504042407 57 72 1.0 3.0 0.00 0.00 0.00 70 1017.2
20260504041809 57 72 1.0 3.0 0.00 0.00 0.00 71 1017.0
20260504041207 57 64 2.0 3.0 0.00 0.00 0.00 71 1017.0
20260504040607 57 68 3.0 4.0 0.00 0.00 0.00 72 1017.1
20260504035409 57 73 3.0 3.0 0.00 0.00 0.00 72 1017.1
20260504034807 57 72 2.0 4.0 0.00 0.00 0.00 72 1017.0
20260504034208 57 64 2.0 5.0 0.00 0.00 0.00 72 1017.0
20260504033607 57 72 3.0 4.0 0.00 0.00 0.00 72 1017.1
20260504033007 57 70 2.0 2.0 0.00 0.00 0.00 72 1017.1
20260504032409 57 72 2.0 4.0 0.00 0.00 0.00 72 1017.1
20260504031807 57 32 0.0 1.0 0.00 0.00 0.00 73 1017.1
20260504031208 57 32 1.0 2.0 0.00 0.00 0.00 73 1017.1
20260504030607 57 62 0.0 0.0 0.00 0.00 0.00 73 1017.1
20260504025408 58 70 0.0 0.0 0.00 0.00 0.00 72 1017.2
20260504024808 58 70 1.0 2.0 0.00 0.00 0.00 72 1017.2
20260504024209 58 72 2.0 3.0 0.00 0.00 0.00 72 1017.2
20260504023608 58 65 2.0 4.0 0.00 0.00 0.00 72 1017.2
20260504023007 58 74 2.0 3.0 0.00 0.00 0.00 72 1017.2
20260504022407 58 68 1.0 3.0 0.00 0.00 0.00 73 1017.2
20260504021807 58 49 1.0 2.0 0.00 0.00 0.00 73 1017.2
20260504021207 58 306 1.0 2.0 0.00 0.00 0.00 74 1017.2
20260504020609 58 306 0.0 0.0 0.00 0.00 0.00 74 1017.2
20260504015407 57 306 0.0 2.0 0.00 0.00 0.00 75 1017.2
20260504014807 58 302 0.0 0.0 0.00 0.00 0.00 75 1017.1
20260504014210 58 336 0.0 0.0 0.00 0.00 0.00 75 1017.2
20260504013607 58 336 1.0 2.0 0.00 0.00 0.00 74 1017.2
20260504013007 58 336 0.0 0.0 0.00 0.00 0.00 74 1017.2
20260504012407 58 334 0.0 0.0 0.00 0.00 0.00 74 1017.2
20260504011811 58 324 0.0 0.0 0.00 0.00 0.00 74 1017.2
20260504011209 58 324 0.0 1.0 0.00 0.00 0.00 74 1017.2
20260504010607 58 324 0.0 2.0 0.00 0.00 0.00 74 1017.2
20260504005409 58 328 1.0 2.0 0.00 0.00 0.00 73 1017.2
20260504004809 59 332 2.0 2.0 0.00 0.00 0.00 73 1017.3